Regional Weather Roundup
Issued by NWS

Home | Current Version | Previous Version | Graphics & Text | Print | Product List | Glossary On
Versions: 1 2 3 4 5 6 7 8 9 10 11 12 13 14 15 16 17 18 19 20 21 22 23 24 25 26 27 28 29 30 31 32 33 34 35 36 37 38 39 40 41 42 43 44 45 46 47 48 49 50
000
ASUS45 KABQ 220810
RWRNM
NEW MEXICO REGIONAL WEATHER ROUNDUP
NATIONAL WEATHER SERVICE ALBUQUERQUE NM
100 AM MST WED FEB 22 2017

NOTE: "FAIR" MEANS FEW OR NO CLOUDS BELOW 12,000 FEET AGL WITH NO
       SIGNIFICANT WEATHER OR OBSTRUCTIONS TO VISION.

      THIS PRODUCT IS RELEASED AS TWO VERSIONS.  ONE VERSION NEAR
      THE TOP OF THE HOUR CONTAINING PRELIMINARY DATA FROM ALBUQUERQUE
      AND OTHER STATIONS.  A FINAL VERSION WITH ADDITIONAL DATA IS
      ISSUED ABOUT 10 MINUTES AFTER THE HOUR.

NMZ501-503-504-510>518-220900-
NORTHWEST PLATEAU/NORTHCENTRAL MOUNTAINS

CITY           SKY/WX    TMP DP  RH WIND       PRES   REMARKS
FARMINGTON     FAIR      46  39  76 NE6       30.14F
LOS ALAMOS     FAIR      47  27  45 SW8       30.22F
SANTA FE       FAIR      41  24  51 CALM      30.19F
TAOS             N/A     32  19  59 CALM      30.21F
ANGEL FIRE     FAIR      31  25  77 W8        30.24F WCI  24

$$
NMZ402-403-502-505>509-220900-
WESTCENTRAL MOUNTAINS/SOUTHWEST MOUNTAINS

CITY           SKY/WX    TMP DP  RH WIND       PRES   REMARKS
GALLUP         FAIR      38  33  82 S5        30.24F WCI  34
GRANTS         FAIR      31  26  82 CALM      30.26S
SILVER CITY    FAIR      39  35  87 NW3       30.24S

$$
NMZ407-409-411-412-220900-
SOUTHERN DESERTS

CITY           SKY/WX    TMP DP  RH WIND       PRES   REMARKS
DEMING         FAIR      46  37  71 W9        30.19F
LAS CRUCES     FAIR      51  37  58 W14       30.18F
HOLLOMAN AFB   FAIR      48  31  53 SE6       30.19S
ALAMOGORDO     FAIR      46  30  53 CALM      30.17S
T OR C         FAIR      55  36  48 NW10      30.18F

$$
NMZ519>523-220900-
CENTRAL VALLEYS/CENTRAL HIGHLANDS

CITY           SKY/WX    TMP DP  RH WIND       PRES   REMARKS
ALBUQUERQUE    FAIR      46  31  55 SE7       30.19F
DOUBLE EAGLE   FAIR      43  31  62 SW10      30.21F
MORIARTY ARPT  FAIR      32  25  74 CALM      30.22S
CLINES CORNERS FAIR      39  25  57 W14       30.22S WCI  31
BELEN          FAIR      48  32  54 W8        30.19F
SOCORRO        FAIR      46  36  68 CALM      30.19S

$$
NMZ524>526-539-540-220900-
SOUTHCENTRAL MOUNTAINS

CITY           SKY/WX    TMP DP  RH WIND       PRES   REMARKS
RUIDOSO        FAIR      45  27  49 E3        30.23F

$$
NMZ527>531-220900-
NORTHEAST HIGHLANDS/NORTHEAST PLAINS

CITY           SKY/WX    TMP DP  RH WIND       PRES   REMARKS
RATON          FAIR      39  12  33 NE3       30.09F
CLAYTON        FAIR      53  17  24 W16       30.01F

$$
NMZ532>537-220900-
EASTCENTRAL PLAINS

CITY           SKY/WX    TMP DP  RH WIND       PRES   REMARKS
TUCUMCARI      FAIR      53  24  32 W12       30.03S
CANNON AFB     FAIR      49  25  38 NW12      30.05F
CLOVIS AIRPORT FAIR      46  23  39 W8        30.05F

$$
NMZ028-029-538-220900-
SOUTHEAST PLAINS

CITY           SKY/WX    TMP DP  RH WIND       PRES   REMARKS
ROSWELL        FAIR      54  29  38 CALM        N/A
ARTESIA        FAIR      46  32  57 CALM      30.08S
CARLSBAD       FAIR      66  33  29 CALM      30.05F
HOBBS          FAIR      52  32  46 W10       30.07F


$$




USA.gov is the U.S. government's official web portal to all federal, state and local government web resources and services.